This is the latest recevied weather packets stored in our database for station/object KC5EZZ-2. If no packets are shown the sender has not sent any weather packets the latest 10 day(s).
| Time | Temp. | Humidity | Pressure | Rain* | Wind** | Luminosity | Snow |
|---|---|---|---|---|---|---|---|
| 1778073096 | 11.11° C | - | - | 0 mm | 4.02 m/s, 18° | - | - |
| 1778072796 | 11.11° C | - | - | 0 mm | 5.36 m/s, 38° | - | - |
| 1778072494 | 11.11° C | - | - | 0 mm | 5.81 m/s, 18° | - | - |
| 1778072194 | 11.67° C | - | - | 0 mm | 5.36 m/s, 336° | - | - |
| 1778071895 | 11.67° C | - | - | 0 mm | 4.47 m/s, 6° | - | - |
| 1778071592 | 12.22° C | - | - | 0 mm | 4.02 m/s, 39° | - | - |
| 1778071293 | 11.67° C | - | - | 0 mm | 2.68 m/s, 10° | - | - |
| 1778070993 | 11.67° C | - | - | 0 mm | 3.13 m/s, 35° | - | - |
| 1778070691 | 11.67° C | - | - | 0 mm | 3.58 m/s, 30° | - | - |
| 1778070392 | 12.22° C | - | - | 0 mm | 3.58 m/s, 14° | - | - |
| 1778070092 | 12.22° C | - | - | 0 mm | 4.47 m/s, 325° | - | - |
| 1778069790 | 12.22° C | - | - | 0 mm | 3.58 m/s, 41° | - | - |
| 1778069490 | 12.22° C | - | - | 0 mm | 3.13 m/s, 27° | - | - |
| 1778069191 | 12.22° C | - | - | 0 mm | 4.02 m/s, 4° | - | - |
| 1778068889 | 12.22° C | - | - | 0 mm | 5.36 m/s, 18° | - | - |
| 1778068589 | 12.22° C | - | - | 0 mm | 4.92 m/s, 0° | - | - |
| 1778068290 | 12.78° C | - | - | 0 mm | 4.02 m/s, 335° | - | - |
| 1778067987 | 13.33° C | - | - | 0 mm | 1.34 m/s, 100° | - | - |
| 1778067688 | 13.33° C | - | - | 0 mm | 2.68 m/s, 20° | - | - |
| 1778067426 | 13.33° C | - | - | 0 mm | 4.02 m/s, 14° | - | - |
| 1778067388 | 13.33° C | - | - | 0 mm | 4.02 m/s, 14° | - | - |
| 1778067339 | 13.33° C | - | - | 0 mm | 4.02 m/s, 28° | - | - |
| 1778067086 | 13.33° C | - | - | 0 mm | 4.02 m/s, 28° | - | - |
| 1778066786 | 13.89° C | - | - | 0 mm | 4.47 m/s, 39° | - | - |
| 1778066486 | 13.89° C | - | - | 0 mm | 4.92 m/s, 4° | - | - |
* Rain latest hour (hover to see other rain measurements)
** Current wind speed in m/s (hover to see current wind gust speed)